This is the latest recevied weather packets stored in our database for station/object K0QJ. If no packets are shown the sender has not sent any weather packets the latest 10 day(s).
| Time | Temp. | Humidity | Pressure | Rain* | Wind** | Luminosity | Snow |
|---|---|---|---|---|---|---|---|
| 1778026472 | 10.56° C | 84% | 1010.3 hPa | 0 mm | - | 26 W/m² | - |
| 1778026169 | 11.11° C | 84% | 1010.1 hPa | 0 mm | - | 29 W/m² | - |
| 1778025867 | 11.11° C | 84% | 1010.5 hPa | 0 mm | - | 32 W/m² | - |
| 1778025564 | 11.11° C | 83% | 1010.4 hPa | 0 mm | - | 23 W/m² | - |
| 1778025262 | 11.11° C | 83% | 1010.4 hPa | 0 mm | - | 32 W/m² | - |
| 1778024958 | 11.11° C | 83% | 1010.3 hPa | 0 mm | - | 52 W/m² | - |
| 1778024656 | 11.11° C | 83% | 1010.3 hPa | 0 mm | - | 74 W/m² | - |
| 1778024352 | 11.11° C | 83% | 1010.6 hPa | 0 mm | - | 56 W/m² | - |
| 1778024050 | 11.11° C | 84% | 1010.5 hPa | 0 mm | - | 58 W/m² | - |
| 1778023747 | 11.11° C | 84% | 1010.4 hPa | 0 mm | - | 67 W/m² | - |
| 1778023445 | 11.11° C | 84% | 1010.3 hPa | 0 mm | - | 72 W/m² | - |
| 1778023142 | 10.56° C | 84% | 1010.7 hPa | 0 mm | - | 61 W/m² | - |
| 1778022839 | 10.56° C | 84% | 1010.8 hPa | 0 mm | - | 54 W/m² | - |
| 1778022537 | 10.56° C | 84% | 1010.9 hPa | 0 mm | - | 55 W/m² | - |
| 1778022234 | 10.56° C | 84% | 1010.9 hPa | 0 mm | - | 56 W/m² | - |
| 1778021931 | 10.56° C | 84% | 1010.8 hPa | 0 mm | - | 63 W/m² | - |
| 1778021628 | 10.56° C | 84% | 1010.6 hPa | 0 mm | - | 53 W/m² | - |
| 1778021323 | 10.56° C | 83% | 1010.5 hPa | 0 mm | - | 62 W/m² | - |
| 1778021021 | 10.56° C | 84% | 1010.4 hPa | 0 mm | - | 56 W/m² | - |
| 1778020718 | 10.56° C | 84% | 1010.4 hPa | 0 mm | - | 65 W/m² | - |
| 1778020415 | 10.56° C | 84% | 1010.6 hPa | 0 mm | - | 72 W/m² | - |
| 1778020111 | 10.56° C | 83% | 1010.6 hPa | 0 mm | - | 108 W/m² | - |
| 1778019807 | 10.56° C | 84% | 1010.7 hPa | 0 mm | - | 76 W/m² | - |
| 1778019505 | 10.56° C | 84% | 1010.6 hPa | 0 mm | - | 75 W/m² | - |
| 1778019201 | 10.56° C | 83% | 1010.6 hPa | 0 mm | - | 115 W/m² | - |
* Rain latest hour (hover to see other rain measurements)
** Current wind speed in m/s (hover to see current wind gust speed)